Location: Cheching
(60.0667°N, 164.2167°W)
Time: 01:52:34
(UTC+00:00)

DX 1 - Pass Details

Date: 27 January 2021
Orbit: 618 x 631 km, 98.5° (Epoch: 07 March)

Event Time Altitude Azimuth Distance (km) Brightness Sun altitude
Rises 13:42:27 0° 85° (E) 2,917 ? -40.1°
Reaches altitude 10° 13:46:33 10° 47° (NE) 2,010 ? -39.7°
Maximum altitude 13:47:24 11° 35° (NE) 1,976 ? -39.7°
Enters shadow 13:47:29 11° 34° (NE) 1,976 ? -39.6°
